Miscellaneous Local Product
Issued by NWS Hastings, NE

Home | Current Version | Previous Version | Graphics & Text | Print | Product List | Glossary On
Versions: 1 2 3 4 5 6 7 8 9 10 11 12 13 14 15 16 17 18 19 20 21 22 23 24 25 26 27 28 29 30 31 32 33 34 35 36 37 38 39 40 41 42 43 44 45 46 47 48 49 50
000
AXUS43 KGID 241502
MISGRI

GID CWA HOURLY WEATHER ROUNDUP
NATIONAL WEATHER SERVICE HASTINGS NE
1000 AM CDT SUN MAY 24 2015

NOTE: "FAIR" INDICATES FEW OR NO CLOUDS BELOW 12,000 FEET WITH NO
SIGNIFICANT WEATHER AND/OR OBSTRUCTIONS TO VISIBILITY.

...SOUTH CENTRAL NEBRASKA...

CITY           SKY/WX    TMP DP  RH WIND       PRES   REMARKS
GRAND ISLAND   CLOUDY    60  58  92 CALM      29.86F
HASTINGS       CLOUDY    63  58  83 CALM      29.85F
KEARNEY        CLOUDY    61  55  82 CALM      29.86S
ORD            CLOUDY    60  58  92 NE8       29.85F
YORK           CLOUDY    61  59  94 CALM      29.86F
AURORA         CLOUDY    60  60 100 CALM      29.86F
LEXINGTON      CLOUDY    59  58  96 CALM      29.87F
HOLDREGE       CLOUDY    59  56  91 SW3       29.86F
HEBRON         CLOUDY    63  59  87 CALM      29.84F

...NEBRASKA PANHANDLE...

CITY           SKY/WX    TMP DP  RH WIND       PRES   REMARKS
CHADRON        CLOUDY    55  52  89 NE10      29.88F
ALLIANCE       CLOUDY    53  51  93 NE12      29.87F
SCOTTSBLUFF    PTSUNNY   56  50  80 CALM      29.88F
SIDNEY         CLOUDY    50  49  96 W5        29.90R

...WESTERN AND NORTH CENTRAL NEBRASKA...

CITY           SKY/WX    TMP DP  RH WIND       PRES   REMARKS
VALENTINE      LGT RAIN  56  55  97 E9        29.90F
AINSWORTH      CLOUDY    56  56 100 E9        29.90F FOG
ONEILL         DRIZZLE   59  59 100 NE7       29.90F
BROKEN BOW     CLOUDY    60  57  89 SE6       29.87S
IMPERIAL       CLOUDY    57  52  83 E6        29.88R
NORTH PLATTE   CLOUDY    57  54  89 SE5       29.89R
MCCOOK         CLOUDY    61  56  83 MISG      29.86F

...EASTERN NEBRASKA...

CITY           SKY/WX    TMP DP  RH WIND       PRES   REMARKS
NORFOLK        CLOUDY   N/A N/A N/A E3        29.86F FOG
SO SIOUX CITY  LGT RAIN  61  58  90 E8        29.87F FOG
TEKAMAH        CLOUDY    62  60  93 E7        29.85S
COLUMBUS       CLOUDY    59  54  82 CALM      29.89S
ALBION         CLOUDY    60  58  94 NE5       29.87F FOG
OMAHA EPPLEY   CLOUDY    63  61  93 SE7       29.84S
OFFUTT AFB     CLOUDY    62  61  97 SE5       29.82F
MILLARD        CLOUDY    62  60  93 E5        29.84F
LINCOLN        CLOUDY    62  60  93 CALM      29.85S FOG
NEBRASKA CITY  CLOUDY    63  63 100 S6        29.84S FOG
BEATRICE       CLOUDY    63  62  96 W8        29.85S
FALLS CITY     CLOUDY    66  63  90 SW7       29.83F

...NORTHERN KANSAS...

CITY           SKY/WX    TMP DP  RH WIND       PRES   REMARKS
GOODLAND       CLOUDY    57  54  89 S3        29.87S
HILL CITY      CLOUDY    60  57  89 E5        29.88S
NORTON         CLOUDY    57  54  88 CALM      29.87R
PHILLIPSBURG   CLOUDY    63  63 100 S6        29.88S
SMITH CENTER   CLOUDY    57  57 100 S5        29.88S FOG
HAYS           CLOUDY    57  52  82 S5        29.89S
RUSSELL        CLOUDY    60  59  96 S10       29.87S
CONCORDIA      CLOUDY    64  60  87 SW12      29.86F
SALINA         CLOUDY    62  60  93 S7        29.89R
TOPEKA         PTSUNNY   69  62  78 SW6       29.87S



USA.gov is the U.S. government's official web portal to all federal, state and local government web resources and services.